This demonstration page uses our WeatherBlox Daily Observations layout. Learn more.

Left ArrowRight Arrow

39.01783, -85.05884

Hourly Observations for March 15, 2017

Temp ( °F °C ) Dew Point ( °F °C ) Humidity (%) Winds ( mph kmh ) Pressure ( in mb ) Visibility ( mi km ) Precip ( " mm )
12:52 am 00:52 Cloudy 22 -5.6 12 -11.1 66 66 NNW 14 22 30.23 1024 10 16 0.00 0.00
1:52 am 01:52 Mostly Clear 20 -6.7 11 -11.7 68 68 NNW 12 19 30.23 1024 10 16 0.00 0.00
2:52 am 02:52 Clear 19 -7.2 8 -13.3 62 62 NW 9 15 30.24 1024 10 16 0.00 0.00
3:52 am 03:52 Clear 19 -7.2 9 -12.8 65 65 WNW 13 20 30.24 1024 10 16 0.00 0.00
4:52 am 04:52 Clear 19 -7.2 10 -12.2 68 68 WNW 13 20 30.23 1024 10 16 0.00 0.00
5:52 am 05:52 Mostly Clear 19 -7.2 10 -12.2 68 68 NW 16 26 30.25 1025 10 16 0.00 0.00
6:52 am 06:52 Mostly Cloudy 19 -7.2 8 -13.3 62 62 NW 10 17 30.27 1025 10 16 0.00 0.00
7:52 am 07:52 Mostly Cloudy 20 -6.7 9 -12.8 62 62 WNW 13 20 30.28 1025 10 16 0.00 0.00
8:52 am 08:52 Mostly Sunny 21 -6.1 13 -10.6 71 71 WNW 14 22 30.29 1026 10 16 0.00 0.00
9:52 am 09:52 Partly Cloudy 23 -5 12 -11.1 63 63 WNW 15 24 30.32 1027 10 16 0.00 0.00
10:52 am 10:52 Partly Cloudy 26 -3.3 9 -12.8 48 48 NNW 20 31 30.32 1027 10 16 0.00 0.00
11:52 am 11:52 Mostly Cloudy 29 -1.7 10 -12.2 45 45 NW 16 26 30.33 1027 10 16 0.00 0.00
12:52 pm 12:52 Mostly Cloudy 30 -1.1 8 -13.3 39 39 WNW 14 22 30.34 1027 10 16 0.00 0.00
1:52 pm 13:52 Cloudy 29 -1.7 9 -12.8 43 43 NW 14 22 30.33 1027 10 16 0.00 0.00
2:52 pm 14:52 Cloudy 30 -1.1 9 -12.8 41 41 WNW 20 31 30.31 1026 10 16 0.00 0.00
3:52 pm 15:52 Cloudy 31 -0.6 11 -11.7 43 43 WNW 17 28 30.30 1026 10 16 0.00 0.00
4:52 pm 16:52 Cloudy 30 -1.1 11 -11.7 45 45 NW 21 33 30.31 1026 10 16 0.00 0.00
5:52 pm 17:52 Mostly Cloudy 31 -0.6 9 -12.8 40 40 WNW 16 26 30.31 1026 10 16 0.00 0.00
6:52 pm 18:52 Mostly Cloudy 31 -0.6 9 -12.8 40 40 WNW 17 28 30.31 1026 10 16 0.00 0.00
7:52 pm 19:52 Mostly Clear 30 -1.1 8 -13.3 39 39 WNW 14 22 30.32 1027 10 16 0.00 0.00
8:52 pm 20:52 Mostly Clear 28 -2.2 8 -13.3 43 43 NW 10 17 30.32 1027 10 16 0.00 0.00
9:52 pm 21:52 Clear 26 -3.3 9 -12.8 48 48 NW 8 13 30.33 1027 10 16 0.00 0.00
10:52 pm 22:52 Clear 25 -3.9 10 -12.2 53 53 NW 7 11 30.34 1028 10 16 0.00 0.00
11:52 pm 23:52 Clear 25 -3.9 11 -11.7 55 55 WNW 5 7 30.34 1028 10 16 0.00 0.00

Powered by AerisWeather